Overview Statistics Trail Chart Weather Telemetry Raw packets
 

This is the latest recevied weather packets stored in our database for station/object W0AKY-13. If no packets are shown the sender has not sent any weather packets the latest 10 day(s).

<< 14 15 16 17 18 19 20 >>
Time Temp. Humidity Pressure Rain* Wind** Luminosity Snow
1788533112 28.33° C 75% 1014.4 hPa 0 mm - 235 W/m² -
1788532809 27.78° C 76% 1014.2 hPa 0 mm - 154 W/m² -
1788532509 27.78° C 75% 1014.3 hPa 0 mm - 152 W/m² -
1788532206 27.22° C 78% 1014.3 hPa 0 mm - 47 W/m² -
1788531902 26.67° C 78% 1014.2 hPa 0 mm - 48 W/m² -
1788531602 26.67° C 79% 1014.3 hPa 0 mm - 43 W/m² -
1788531296 26.67° C 79% 1014.2 hPa 0 mm - 34 W/m² -
1788530993 26.11° C 79% 1014.4 hPa 0 mm - 31 W/m² -
1788530693 26.11° C 80% 1014.2 hPa 0 mm - 30 W/m² -
1788530391 26.11° C 81% 1014.6 hPa 0 mm - 29 W/m² -
1788530086 25.56° C 81% 1014.6 hPa 0 mm - 27 W/m² -
1788529783 25.56° C 82% 1014.3 hPa 0 mm - 25 W/m² -
1788529482 25.56° C 82% 1014.2 hPa 0 mm - 26 W/m² -
1788529177 25.56° C 84% 1014.3 hPa 0 mm - 25 W/m² -
1788528872 25° C 83% 1014.2 hPa 0 mm - 24 W/m² -
1788528568 25° C 83% 1014.3 hPa 0 mm - 23 W/m² -
1788528263 25° C 84% 1014 hPa 0 mm - 22 W/m² -
1788527962 24.44° C 84% 1014.2 hPa 0 mm - 21 W/m² -
1788527658 24.44° C 84% 1014.1 hPa 0 mm - 20 W/m² -
1788527353 24.44° C 85% 1014 hPa 0 mm - 19 W/m² -
1788527052 24.44° C 85% 1013.9 hPa 0 mm - 18 W/m² -
1788526747 24.44° C 85% 1013.9 hPa 0 mm - 17 W/m² -
1788526444 24.44° C 85% 1013.8 hPa 0 mm - 16 W/m² -
1788526142 24.44° C 85% 1013.7 hPa 0 mm - 15 W/m² -
1788525839 24.44° C 85% 1013.6 hPa 0 mm - 14 W/m² -

* Rain latest hour (hover to see other rain measurements)
** Current wind speed in m/s (hover to see current wind gust speed)